TimeEDT,TemperatureF,Dew PointF,Humidity,Sea Level PressureIn,VisibilityMPH,Wind Direction,Wind SpeedMPH,Gust SpeedMPH,PrecipitationIn,Events,Conditions,WindDirDegrees,DateUTC
12:00 AM,42.8,30.2,61,30.06,10.0,North,15.0,19.6,N/A,Rain,Light Rain,350,2012-10-29 04:00:00
12:29 AM,41.0,30.2,65,30.06,10.0,North,18.4,27.6,N/A,,Overcast,350,2012-10-29 04:29:00
12:55 AM,40.8,30.6,67,30.06,10.0,NNW,9.2,-,0.00,,Overcast,340,2012-10-29 04:55:00
1:55 AM,41.5,28.4,60,30.04,10.0,NNW,16.1,19.6,N/A,,Overcast,340,2012-10-29 05:55:00
2:55 AM,41.2,29.5,63,30.04,10.0,North,15.0,20.7,N/A,,Overcast,350,2012-10-29 06:55:00
3:20 AM,41.0,30.2,65,30.03,10.0,NNW,15.0,21.9,N/A,Rain,Light Rain,340,2012-10-29 07:20:00
3:55 AM,39.7,32.5,75,30.03,10.0,NNW,12.7,-,0.00,Rain,Light Rain,340,2012-10-29 07:55:00
4:55 AM,38.1,32.4,80,30.02,10.0,NNW,8.1,-,0.00,Rain,Light Rain,340,2012-10-29 08:55:00
5:55 AM,37.2,32.5,83,30.03,10.0,NNW,10.4,-,0.01,Rain,Light Rain,330,2012-10-29 09:55:00
6:55 AM,36.9,32.7,85,30.02,10.0,NNW,11.5,20.7,0.00,Rain,Light Rain,330,2012-10-29 10:55:00
7:55 AM,36.3,32.2,85,30.01,10.0,NW,12.7,21.9,0.00,Rain,Light Rain,320,2012-10-29 11:55:00
8:20 AM,35.6,32.0,87,30.01,10.0,NW,13.8,23.0,N/A,,Overcast,320,2012-10-29 12:20:00
8:49 AM,37.4,32.0,81,30.01,10.0,NNW,16.1,-,N/A,,Light Drizzle,340,2012-10-29 12:49:00
8:55 AM,36.9,31.8,82,30.01,10.0,NW,17.3,23.0,0.00,,Light Drizzle,320,2012-10-29 12:55:00
9:55 AM,38.1,31.5,77,30.01,10.0,NNW,13.8,21.9,0.00,,Overcast,330,2012-10-29 13:55:00
10:55 AM,39.7,32.7,76,30.00,10.0,NNW,12.7,21.9,N/A,,Overcast,330,2012-10-29 14:55:00
11:06 AM,39.2,32.0,75,29.99,10.0,NNW,16.1,26.5,N/A,Rain,Light Rain,330,2012-10-29 15:06:00
11:55 AM,39.9,32.4,74,29.99,10.0,NW,15.0,23.0,0.00,,Scattered Clouds,320,2012-10-29 15:55:00
12:07 PM,41.0,32.0,70,29.99,10.0,NNW,13.8,28.8,N/A,Rain,Light Rain,330,2012-10-29 16:07:00
12:55 PM,39.9,32.5,75,29.97,10.0,NNW,16.1,27.6,0.00,Rain,Light Rain,330,2012-10-29 16:55:00
1:22 PM,41.0,32.0,70,29.96,10.0,NNW,17.3,26.5,N/A,,Overcast,330,2012-10-29 17:22:00
1:52 PM,41.0,32.0,70,29.94,10.0,NW,13.8,-,N/A,Rain,Light Rain,320,2012-10-29 17:52:00
1:55 PM,41.2,32.9,72,29.94,10.0,NNW,13.8,23.0,0.00,,Overcast,330,2012-10-29 17:55:00
2:26 PM,41.0,32.0,70,29.94,10.0,NNW,13.8,24.2,N/A,Rain,Light Rain,330,2012-10-29 18:26:00
2:55 PM,41.5,32.5,70,29.92,10.0,NNW,18.4,25.3,0.00,,Overcast,330,2012-10-29 18:55:00
3:33 PM,42.8,32.0,66,29.91,10.0,NW,18.4,28.8,N/A,Rain,Light Rain,320,2012-10-29 19:33:00
3:43 PM,42.8,32.0,66,29.91,10.0,NNW,20.7,27.6,N/A,,Overcast,330,2012-10-29 19:43:00
3:55 PM,42.1,32.0,67,29.91,10.0,NNW,18.4,27.6,0.00,,Overcast,330,2012-10-29 19:55:00
4:28 PM,41.0,32.0,70,29.90,10.0,NW,17.3,31.1,N/A,Rain,Light Rain,320,2012-10-29 20:28:00
4:33 PM,41.0,32.0,70,29.90,10.0,NW,16.1,31.1,N/A,Rain,Light Rain,320,2012-10-29 20:33:00
4:43 PM,41.0,32.0,70,29.90,10.0,NNW,13.8,27.6,N/A,,Overcast,330,2012-10-29 20:43:00
4:55 PM,41.4,31.6,68,29.90,10.0,NNW,17.3,29.9,0.01,,Overcast,330,2012-10-29 20:55:00
5:11 PM,41.0,32.0,70,29.88,10.0,NNW,15.0,32.2,N/A,Rain,Light Rain,330,2012-10-29 21:11:00
5:50 PM,41.0,30.2,65,29.87,10.0,NNW,17.3,29.9,N/A,,Overcast,330,2012-10-29 21:50:00
5:55 PM,41.5,30.6,65,29.87,10.0,NNW,13.8,29.9,0.00,,Overcast,340,2012-10-29 21:55:00
6:55 PM,41.7,28.4,59,29.86,10.0,NNW,18.4,36.8,N/A,,Overcast,330,2012-10-29 22:55:00
7:05 PM,41.0,28.4,61,29.85,10.0,NW,17.3,33.4,N/A,Rain,Light Rain,320,2012-10-29 23:05:00
7:07 PM,41.0,28.4,61,29.84,10.0,NNW,15.0,29.9,N/A,Rain,Light Rain,330,2012-10-29 23:07:00
7:19 PM,41.0,28.4,61,29.84,10.0,NNW,16.1,36.8,N/A,,Overcast,340,2012-10-29 23:19:00
7:55 PM,42.1,26.2,53,29.83,10.0,NNW,15.0,33.4,0.00,,Overcast,330,2012-10-29 23:55:00
8:55 PM,43.0,22.8,45,29.79,10.0,NNW,23.0,40.3,N/A,,Overcast,330,2012-10-30 00:55:00
9:55 PM,42.8,22.8,45,29.77,10.0,NNW,26.5,41.4,N/A,,Overcast,330,2012-10-30 01:55:00
10:55 PM,42.4,22.6,46,29.73,10.0,NNW,24.2,40.3,0.04,,Overcast,340,2012-10-30 02:55:00
11:55 PM,42.1,21.9,45,29.70,10.0,NW,20.7,39.1,N/A,,Overcast,320,2012-10-30 03:55:00